Time,B instrument,Bx,By,Bz,sigma B,Ion instrument,Status,Tp_par,Tp_perp,carrot,r_sun,clat,clong,earth_he_angle,n_p,vp_x,vp_y,vp_z,vth_p_par,vth_p_perp
1981-06-08 00:01:26,1,-30.625,2.6,6.65,0.435172,1,1,45134.9,45978.7,1709,0.33024132,-3.9452591,195.64868,325.60181,102.615,228.075,8.45658,33.4877,27.297,27.5509
1981-06-08 00:01:27,1,-30.575,2.7375,6.6875,0.517506,1,1,48208.6,49441.4,1709,0.33024126,-3.9452591,195.64868,325.60181,105.582,228.297,8.15695,34.4548,28.2111,28.5696
1981-06-08 00:01:38,1,-30.525,2.9625,6.9875,0.397256,1,1,55586.4,51181.3,1709,0.33023608,-3.9448032,195.6521,325.60522,112.507,226.385,4.82449,26.7106,30.293,29.0679
1981-06-08 00:02:18,1,-31.1625,-0.125,2.15,0.673958,1,1,50913.4,47380.6,1709,0.33023083,-3.9443483,195.64795,325.60889,110.232,227.294,4.02531,27.8769,28.9917,27.9678
1981-06-08 00:02:59,1,-31.7,-0.0375,2.9375,0.983457,1,1,45702.4,46286.6,1709,0.33023083,-3.9443474,195.64014,325.60889,102.692,227.887,7.23297,31.0601,27.468,27.643
1981-06-08 00:03:39,1,-31.4571,3.58571,5.84286,0.939822,1,1,43415.6,47503.4,1709,0.33022565,-3.9438925,195.63989,325.61255,102.46,229.156,6.99669,32.2382,26.772,28.004
1981-06-08 00:04:20,1,-31.2125,4.325,6.55,0.378112,1,1,43291.0,47143.4,1709,0.3302204,-3.9434366,195.63574,325.61621,99.5533,228.902,9.68083,32.4893,26.7336,27.8977
1981-06-08 00:05:00,1,-31.4444,4.84444,6.32222,0.362093,1,1,44398.3,47462.4,1709,0.33021522,-3.9429808,195.6355,325.61987,106.641,227.596,9.56645,31.708,27.0733,27.9919
1981-06-08 00:05:41,1,-31.1667,4.43333,6.25556,0.434897,1,1,43377.9,46717.7,1709,0.33021522,-3.9429808,195.62769,325.61987,103.138,228.234,8.55875,31.0755,26.7604,27.7714
1981-06-08 00:06:21,1,-31.0667,5.47778,6.3,0.41036,1,1,44224.3,46926.6,1709,0.33020997,-3.9425249,195.62354,325.62354,104.211,227.106,9.67913,31.0274,27.0202,27.8335
1981-06-08 00:07:02,1,-31.2625,5.2375,5.775,0.592927,1,1,51480.5,51606.5,1709,0.33020478,-3.94207,195.62329,325.6272,112.646,226.419,9.18137,30.5027,29.1527,29.1884
1981-06-08 00:07:42,1,-30.9625,4.75,5.2,0.841037,1,1,45804.2,49257.0,1709,0.33020478,-3.94207,195.61548,325.6272,107.426,226.428,5.81264,26.4224,27.4986,28.5162
1981-06-08 00:08:23,1,-31.6556,3.75556,3.4,0.422222,1,1,48812.8,48820.0,1709,0.33019954,-3.9416142,195.61523,325.63086,111.324,228.353,6.73833,27.3294,28.3873,28.3894
1981-06-08 00:09:03,1,-30.9875,4.3125,4.55,0.489579,1,1,46266.8,46964.0,1709,0.33019429,-3.9411583,195.61108,325.63452,107.396,229.125,7.79927,26.6851,27.6371,27.8446
1981-06-08 00:09:44,1,-31.15,5.625,3.75,1.01335,1,1,55090.0,51696.2,1709,0.33019429,-3.9411583,195.60327,325.63452,110.971,230.619,12.5769,30.6356,30.1574,29.2137
1981-06-08 00:10:24,1,-29.0125,7.7,6.075,0.678578,1,1,57170.4,54009.5,1709,0.33018911,-3.9407024,195.60303,325.63818,112.4,232.401,14.6546,32.8452,30.7216,29.8602
1981-06-08 00:11:05,1,-28.25,8.97,7.54,0.583952,1,1,65555.4,51726.3,1709,0.33018386,-3.9402475,195.59888,325.64185,121.958,233.531,16.6553,34.4841,32.8974,29.2222
1981-06-08 00:11:45,1,-27.1875,10.5875,9.225,0.822534,1,1,56429.9,51618.9,1709,0.33018386,-3.9402466,195.59497,325.64185,110.231,236.608,17.3712,37.2938,30.522,29.1919
1981-06-08 00:12:26,1,-25.84,11.1,11.1,1.42352,1,1,64249.1,53847.2,1709,0.33017868,-3.9397917,195.59082,325.64551,116.555,235.504,16.6951,34.9005,32.568,29.8153
1981-06-08 00:13:06,1,-26.575,10.6125,10.2375,0.339577,1,1,48358.0,52797.5,1709,0.33017343,-3.9393358,195.59058,325.64917,104.161,237.112,14.5047,35.3679,28.2548,29.5233
1981-06-08 00:13:47,1,-27.07,9.53,11.39,0.875842,1,1,60926.9,48722.5,1709,0.33017343,-3.9393358,195.58276,325.64917,111.138,237.208,12.9982,35.3681,31.7148,28.3611
1981-06-08 00:14:27,1,-28.0875,7.85,11.05,0.677196,1,1,61287.3,52153.7,1709,0.33016825,-3.93888,195.57861,325.65283,115.97,237.362,12.9984,37.9322,31.8085,29.3427
1981-06-08 00:15:08,1,-28.2778,7.91111,10.3111,1.28985,1,1,70683.1,53790.4,1709,0.330163,-3.9384241,195.57837,325.65649,122.903,232.837,13.4665,32.2031,34.1598,29.7996
1981-06-08 00:15:48,1,-27.5125,8.675,10.55,1.06324,1,1,64840.2,50244.1,1709,0.330163,-3.9384241,195.57056,325.65649,118.137,234.613,13.6937,35.8008,32.7175,28.8005
1981-06-08 00:16:29,1,-27.9,8.56667,9.28889,0.59897,1,1,76238.2,52143.4,1709,0.33015776,-3.9379683,195.57007,325.65991,126.71,232.155,14.5649,33.9195,35.4768,29.3398
1981-06-08 00:17:09,1,-28.575,8.35,8.4125,0.381404,1,1,61357.5,53754.3,1709,0.33015257,-3.9375134,195.56592,325.66357,119.411,231.369,11.8162,30.7238,31.8267,29.7896
1981-06-08 00:17:50,1,-30.4778,6.98889,5.21111,0.910026,1,1,62958.1,54348.7,1709,0.33015257,-3.9375124,195.55811,325.66357,121.326,229.271,15.4127,29.2745,32.2392,29.9538
1981-06-08 00:18:30,1,-30.65,7.875,3.975,0.579871,1,1,53625.6,54692.0,1709,0.33014733,-3.9370575,195.55786,325.66724,116.712,228.576,12.4794,27.8427,29.7539,30.0483
1981-06-08 00:19:11,1,-31.3,6.3125,3.3125,0.653596,1,1,58381.3,53878.9,1709,0.33014214,-3.9366016,195.55371,325.6709,117.6,229.651,11.1328,28.7294,31.0452,29.8241
1981-06-08 00:19:51,1,-30.95,5.85,4.375,0.61796,1,1,57792.5,54884.4,1709,0.33014214,-3.9366016,195.5498,325.6709,119.702,230.062,11.3078,29.1677,30.8883,30.1011
1981-06-08 00:20:32,1,-30.9375,5.9375,4.525,0.653118,1,1,58423.9,55359.0,1709,0.3301369,-3.9361458,195.54565,325.67456,122.125,229.63,11.3677,28.3214,31.0566,30.231
1981-06-08 00:21:12,1,-30.7875,5.5875,4.875,1.51709,1,1,50648.2,53942.2,1709,0.33013171,-3.9356899,195.54541,325.67822,112.386,232.811,10.2815,29.4556,28.9161,29.8416
1981-06-08 00:21:53,1,-31.57,5.54,6.15,0.41833,1,1,67338.9,54614.8,1709,0.33013171,-3.9356899,195.5376,325.67822,128.404,230.79,16.5575,28.5404,33.3419,30.0271
1981-06-08 00:22:33,1,-31.0444,8.16667,4.75556,1.03196,1,1,56188.6,54306.1,1709,0.33012646,-3.9352341,195.53345,325.68188,119.175,231.883,15.0976,26.483,30.4566,29.9421
1981-06-08 00:23:14,1,-31.8625,8.0,3.625,0.562778,1,1,49481.8,54765.0,1709,0.33012128,-3.9347792,195.5332,325.68555,116.052,229.529,14.082,24.5794,28.5812,30.0683
1981-06-08 00:23:54,1,-32.5,7.5,2.94444,0.346766,1,1,52210.8,55128.4,1709,0.33012122,-3.9347782,195.52539,325.68555,117.502,229.563,14.8527,23.8512,29.3588,30.1679
1981-06-08 00:24:35,1,-32.2889,7.6,3.12222,0.903355,1,1,57597.2,56433.6,1709,0.33011603,-3.9343233,195.52515,325.68921,124.207,229.482,16.4525,25.5264,30.8361,30.523
1981-06-08 00:25:15,1,-31.7556,8.01111,3.62222,0.527749,1,1,55476.3,56256.7,1709,0.33011079,-3.9338675,195.521,325.69287,121.006,229.75,17.0628,25.2693,30.263,30.4751
1981-06-08 00:25:56,1,-32.0111,8.31111,2.85556,0.339935,1,1,61726.9,54793.7,1709,0.33011079,-3.9338675,195.51318,325.69287,127.924,232.211,14.1692,25.0392,31.9224,30.0762
1981-06-08 00:26:36,1,-31.525,6.9625,3.025,0.611223,1,1,61184.6,56676.8,1709,0.3301056,-3.9334116,195.51294,325.69653,128.552,234.454,17.8503,20.1816,31.7818,30.5887
1981-06-08 00:27:17,1,-31.125,10.425,0.1,0.537355,1,1,66397.9,57823.7,1709,0.33010036,-3.9329557,195.50879,325.7002,133.769,235.493,19.9147,19.9426,33.1081,30.8966
1981-06-08 00:27:57,1,-31.0125,11.275,-0.8,0.550426,1,1,64215.5,56131.2,1709,0.33010036,-3.9329557,195.50488,325.7002,134.054,236.21,22.2277,19.2396,32.5595,30.4411
1981-06-08 00:28:38,1,-30.45,12.5375,-1.275,0.451906,1,1,57179.9,54757.8,1709,0.33009517,-3.9324999,195.50073,325.70386,127.786,240.852,22.8497,13.89,30.7241,30.0664
1981-06-08 00:29:18,1,-30.1875,14.4625,-3.7625,1.04799,1,1,54937.3,55218.0,1709,0.33008993,-3.932045,195.49658,325.70752,127.45,244.668,24.7678,12.4728,30.1156,30.1924
1981-06-08 00:29:59,1,-29.75,16.46,-4.18,0.87892,1,1,60475.8,54915.2,1709,0.33008993,-3.932044,195.49268,325.70752,131.81,242.685,21.6623,9.16082,31.5972,30.1095
1981-06-08 00:30:39,1,-31.4444,14.0444,-6.4,0.469568,1,1,65486.8,57544.0,1709,0.33008474,-3.9315891,195.48853,325.71118,139.601,235.738,21.2717,13.8218,32.8802,30.8218
1981-06-08 00:31:20,1,-31.3111,10.7778,-3.54444,2.62989,1,1,75929.6,57369.7,1709,0.3300795,-3.9311333,195.48804,325.7146,147.664,236.14,22.4249,10.4454,35.4049,30.7751
1981-06-08 00:32:00,1,-30.85,11.8875,-6.2375,0.394889,1,1,65286.2,58465.4,1709,0.33007425,-3.9306774,195.48389,325.71826,139.302,236.741,21.2656,10.7472,32.8298,31.0676
1981-06-08 00:32:41,1,-31.0889,11.0556,-6.2,0.570683,1,1,74614.3,60027.0,1709,0.33007425,-3.9306774,195.47607,325.71826,146.57,233.986,15.4305,22.2245,35.0969,31.4797
1981-06-08 00:33:21,1,-32.4375,7.35,0.9875,0.693497,1,1,66891.5,57146.0,1709,0.33006907,-3.9302216,195.47583,325.72192,138.836,236.053,20.3548,14.2997,33.231,30.715
1981-06-08 00:34:02,1,-31.5778,10.3,-3.04444,0.522577,1,1,87065.5,58872.7,1709,0.33006382,-3.9297667,195.47168,325.72559,156.173,235.412,21.8565,11.5993,37.9124,31.1756
1981-06-08 00:34:42,1,-31.1875,11.2625,-4.85,0.385276,1,1,65054.2,57943.0,1709,0.33006382,-3.9297657,195.46777,325.72559,139.182,238.03,22.6122,10.5692,32.7714,30.9285
1981-06-08 00:35:23,1,-31.1,11.9667,-6.02222,0.666296,1,1,75314.9,59332.7,1709,0.33005863,-3.9293108,195.46362,325.72925,148.178,239.364,23.2308,7.98487,35.2613,31.2972
1981-06-08 00:36:03,1,-31.025,11.8375,-7.525,0.698995,1,1,56373.3,56243.7,1709,0.33005339,-3.9288549,195.46338,325.73291,131.372,238.763,22.0613,20.858,30.5066,30.4716
1981-06-08 00:36:44,1,-33.06,11.65,1.54,1.01356,1,1,59796.8,55779.6,1709,0.33005339,-3.9288549,195.45557,325.73291,134.148,239.597,22.0328,17.7446,31.4193,30.3456
1981-06-08 00:37:24,1,-33.2875,11.65,-0.1,0.445639,1,1,53697.6,54809.0,1709,0.3300482,-3.9283991,195.45142,325.73657,129.274,238.653,21.2784,17.3195,29.7739,30.0804
1981-06-08 00:38:05,1,-33.0,12.44,0.3,1.56218,1,1,62640.9,57600.2,1709,0.33004296,-3.9279432,195.45117,325.74023,135.839,239.474,23.2595,21.2635,32.1578,30.8368
1981-06-08 00:38:45,1,-32.4667,12.8222,3.0,0.910162,1,1,54064.7,55435.7,1709,0.33004296,-3.9279432,195.44336,325.74023,130.048,238.266,20.8017,15.8275,29.8755,30.2519
1981-06-08 00:39:26,1,-33.4889,12.0111,0.477778,0.717506,1,1,60728.9,56370.2,1709,0.33003771,-3.9274883,195.44312,325.7439,135.094,239.482,22.1881,15.9512,31.6633,30.5058
1981-06-08 00:40:06,1,-32.9444,13.2333,-0.155556,0.58542,1,1,53169.9,53404.3,1709,0.33003253,-3.9270325,195.43896,325.74756,128.989,239.425,23.3296,13.8629,29.6272,29.6925
1981-06-08 00:40:47,1,-32.5889,14.5778,-1.61111,0.5591,1,1,58022.8,54828.4,1709,0.33003253,-3.9270325,195.43115,325.74756,134.719,238.2,22.5459,15.3837,30.9498,30.0857
1981-06-08 00:41:27,1,-33.4556,12.8222,-2.57778,1.01617,1,1,49734.6,54787.9,1709,0.33002728,-3.9265766,195.43091,325.75122,126.765,238.859,24.9668,14.0901,28.6541,30.0746
1981-06-08 00:42:08,1,-32.7,14.4889,-0.255556,0.707979,1,1,58396.6,54283.5,1709,0.3300221,-3.9261208,195.42676,325.75488,134.371,237.32,23.5249,15.6391,31.0493,29.9359
1981-06-08 00:42:48,1,-33.1,13.425,1.55,0.706665,1,1,56196.8,53171.6,1709,0.3300221,-3.9261208,195.42285,325.75488,126.109,237.971,23.9913,17.7598,30.4589,29.6277
1981-06-08 00:43:29,1,-32.675,13.375,0.3,1.06712,1,1,52434.0,53939.1,1709,0.33001685,-3.9256649,195.4187,325.75854,129.967,237.392,24.1528,16.3061,29.4215,29.8408
1981-06-08 00:44:09,1,-32.8125,12.8375,1.5625,1.159,1,1,50907.0,52885.3,1709,0.33001167,-3.92521,195.41846,325.76221,128.994,236.806,24.3559,13.5618,28.9899,29.5478
1981-06-08 00:44:50,1,-33.0,12.63,1.24,1.45619,1,1,55472.6,55045.7,1709,0.33001167,-3.925209,195.41064,325.76221,131.334,237.518,23.6486,18.0014,30.262,30.1453
1981-06-08 00:45:30,1,-33.2375,12.125,1.3375,1.21925,1,1,50747.8,53301.0,1709,0.33000642,-3.9247541,195.40649,325.76587,123.443,237.706,22.2863,21.1996,28.9445,29.6637
1981-06-08 00:46:11,1,-33.45,12.05,-1.31,1.28215,1,1,59255.3,55853.6,1709,0.33000118,-3.9242983,195.40601,325.76929,133.571,237.08,23.8849,17.2921,31.2767,30.3657
1981-06-08 00:46:51,1,-33.1222,12.7778,-0.188889,0.290593,1,1,52323.3,53809.6,1709,0.33000118,-3.9242983,195.39819,325.76929,126.768,237.419,23.6338,19.0984,29.3904,29.8049
1981-06-08 00:47:32,1,-33.02,12.93,0.05,0.440681,1,1,58760.0,55757.1,1709,0.32999599,-3.9238424,195.39795,325.77295,133.959,238.158,24.1653,17.5698,31.1457,30.3395
1981-06-08 00:48:12,1,-32.7222,12.6667,-0.888889,1.11178,1,1,51659.9,55032.7,1709,0.32999074,-3.9233866,195.3938,325.77661,126.263,237.699,24.086,15.2778,29.2035,30.1417
1981-06-08 00:48:53,1,-32.4667,13.4111,-2.43333,0.395655,1,1,58151.5,55280.2,1709,0.32999074,-3.9233866,195.38599,325.77661,132.377,237.385,24.0709,15.4452,30.9841,30.2095
1981-06-08 00:49:33,1,-32.45,12.9375,-2.55,0.312,1,1,53376.0,56045.1,1709,0.32998556,-3.9229307,195.38574,325.78027,129.173,237.558,24.2176,13.7696,29.6846,30.4177
1981-06-08 00:50:14,1,-32.4444,12.7889,-2.52222,0.495162,1,1,56421.9,56344.9,1709,0.32998031,-3.9224758,195.38159,325.78394,131.563,237.468,23.737,15.2809,30.5198,30.499
1981-06-08 00:50:54,1,-32.7,11.65,-1.35,0.471699,1,1,50736.8,54685.0,1709,0.32998031,-3.9224749,195.37769,325.78394,124.943,236.928,23.8563,15.024,28.9414,30.0464
1981-06-08 00:51:35,1,-32.7375,12.2375,-0.9625,0.628117,1,1,54189.1,55019.7,1709,0.32997513,-3.92202,195.37354,325.7876,125.985,236.023,22.1657,15.788,29.9098,30.1382
1981-06-08 00:52:15,1,-33.2125,11.3875,-0.5875,0.467206,1,1,50105.3,53742.5,1709,0.32996988,-3.9215641,195.36938,325.79126,125.948,237.41,24.2211,13.4803,28.7607,29.7863
1981-06-08 00:52:56,1,-32.42,12.69,-2.36,1.1895,1,1,52390.4,54991.1,1709,0.32996988,-3.9215641,195.36548,325.79126,128.249,236.396,23.341,15.5265,29.4092,30.1303
1981-06-08 00:53:36,1,-32.9,12.0375,-1.525,0.486538,1,1,49922.1,54387.2,1709,0.32996464,-3.9211082,195.36133,325.79492,121.905,237.205,24.008,16.9983,28.7081,29.9644
1981-06-08 00:54:17,1,-32.46,13.29,-0.34,0.541941,1,1,54691.1,52815.1,1709,0.32995945,-3.9206524,195.36108,325.79858,127.799,235.827,25.2512,16.6274,30.0481,29.5282
1981-06-08 00:54:57,1,-31.875,14.55,-0.375,1.16136,1,1,45499.7,53195.1,1709,0.32995945,-3.9206524,195.35327,325.79858,125.078,237.644,24.4153,15.6878,27.407,29.6342
1981-06-08 00:55:38,1,-31.91,14.37,0.34,1.35698,1,1,58424.3,53177.1,1709,0.32995421,-3.9201965,195.34912,325.80225,128.988,237.907,27.4918,13.2646,31.0567,29.6292
1981-06-08 00:56:18,1,-31.5556,14.9333,-0.888889,1.44649,1,1,50486.8,52764.8,1709,0.32994902,-3.9197416,195.34888,325.80591,122.645,236.977,25.3384,14.9521,28.87,29.5141
1981-06-08 00:56:59,1,-32.2222,13.2778,-1.01111,0.671648,1,1,51695.1,53048.9,1709,0.32994902,-3.9197407,195.34106,325.80591,121.792,238.125,26.8812,26.024,29.2134,29.5935
1981-06-08 00:57:39,1,-31.0,14.8778,3.14444,1.1293,1,1,48489.4,51186.2,1709,0.32994378,-3.9192858,195.34082,325.80957,118.056,236.594,24.4614,19.0933,28.2932,29.0693
1981-06-08 00:58:20,1,-31.7111,13.6667,1.03333,0.384258,1,1,61213.8,54650.2,1709,0.32993859,-3.9188299,195.33667,325.81323,131.073,235.132,25.7314,18.9964,31.7894,30.0368
1981-06-08 00:59:00,1,-31.0375,14.6125,0.8375,0.407162,1,1,52326.5,54332.2,1709,0.32993335,-3.9183741,195.33643,325.81689,124.735,236.59,26.9611,18.7575,29.3913,29.9493
1981-06-08 00:59:41,1,-30.8,15.0556,1.43333,0.857789,1,1,58680.5,53138.9,1709,0.32993335,-3.9183741,195.32861,325.81689,127.959,235.957,27.8987,19.1434,31.1247,29.6186
1981-06-08 01:00:21,1,-30.05,16.15,1.5,0.273861,1,1,54996.5,54535.4,1709,0.32992816,-3.9179182,195.32446,325.82056,126.801,236.567,26.8851,18.6914,30.1318,30.0052
1981-06-08 01:01:02,1,-29.9889,16.0222,0.655556,0.347478,1,1,53473.9,55421.6,1709,0.32992297,-3.9174604,195.32397,325.82397,127.866,235.29,27.919,18.0424,29.7118,30.2481
1981-06-08 01:01:42,1,-29.675,16.8,1.25,0.349106,1,1,50743.1,53134.8,1709,0.32992291,-3.9174604,195.31616,325.82397,120.583,237.104,28.8,18.2723,28.9432,29.6174
1981-06-08 01:02:23,1,-29.34,17.36,0.64,0.594306,1,1,57179.2,53805.0,1709,0.32991773,-3.9170027,195.31592,325.82764,129.586,234.36,26.9259,17.9985,30.7239,29.8036
1981-06-08 01:03:03,1,-29.7,16.5125,-0.05,0.136359,1,1,54239.7,53230.8,1709,0.3299126,-3.9165449,195.31177,325.8313,125.792,235.008,25.9903,16.2558,29.9238,29.6442
1981-06-08 01:03:44,1,-30.74,14.97,-0.68,1.14896,1,1,60574.4,55459.0,1709,0.32991254,-3.9165449,195.30396,325.8313,131.563,233.593,25.4419,17.2723,31.6229,30.2583
1981-06-08 01:04:24,1,-30.8889,14.3222,-1.71111,1.6239,1,1,56497.6,53486.5,1709,0.32990736,-3.9160872,195.30371,325.83496,127.842,237.055,26.0971,14.3985,30.5403,29.7153
1981-06-08 01:05:05,1,-31.1111,13.7889,-1.5,2.05637,1,1,64806.6,54587.1,1709,0.32990217,-3.9156294,195.29956,325.83862,133.417,230.851,18.0629,13.7977,32.709,30.0195
1981-06-08 01:05:45,1,-32.3444,10.1889,-3.15556,2.24928,1,1,51979.3,54729.4,1709,0.32990217,-3.9156284,195.29565,325.83862,124.016,236.769,25.942,19.6918,29.2936,30.0586
1981-06-08 01:06:26,1,-30.3,15.0,0.633333,0.834,1,1,66065.8,54692.0,1709,0.32989699,-3.9151707,195.2915,325.84229,134.379,234.557,23.392,16.707,33.0253,30.0483
1981-06-08 01:07:06,1,-31.6,12.925,-1.8125,0.934328,1,1,54023.4,54082.0,1709,0.3298918,-3.9147129,195.29126,325.84595,124.979,234.697,24.3068,17.1056,29.8641,29.8802
1981-06-08 01:07:47,1,-31.3,13.9111,-1.72222,1.5472,1,1,51643.6,53109.9,1709,0.3298918,-3.9147129,195.28345,325.84595,123.609,232.007,16.2545,17.41,29.1989,29.6105
1981-06-08 01:08:27,1,-32.7125,9.625,-2.35,0.915406,1,1,56683.5,53556.9,1709,0.32988662,-3.9142551,195.2793,325.84961,128.926,232.374,15.1791,14.1081,30.5905,29.7348
1981-06-08 01:09:08,1,-33.2,7.4125,-4.15,0.413635,1,1,57579.5,54147.6,1709,0.32988143,-3.9137974,195.27905,325.85327,128.162,231.966,16.6098,14.157,30.8313,29.8984
1981-06-08 01:09:48,1,-32.825,8.6375,-3.9,0.37312,1,1,55604.7,52266.2,1709,0.32988143,-3.9137974,195.27124,325.85327,126.983,233.328,18.7933,14.648,30.298,29.3744
1981-06-08 01:10:29,1,-32.6,9.7,-4.05,0.132288,1,1,61039.2,54782.4,1709,0.32987624,-3.9133396,195.271,325.85693,130.792,233.538,19.4825,15.2399,31.7441,30.0731
1981-06-08 01:11:09,1,-32.6,9.675,-3.0375,0.499218,1,1,60294.8,53571.5,1709,0.32987106,-3.9128819,195.26685,325.8606,131.227,232.868,17.1595,18.1605,31.5499,29.7389
1981-06-08 01:11:50,1,-32.975,8.475,-1.6625,0.888028,1,1,57012.4,54635.0,1709,0.32987106,-3.9128819,195.25903,325.8606,128.676,233.468,16.3124,20.3378,30.6791,30.0326
1981-06-08 01:12:30,1,-33.3333,7.36667,0.311111,1.17042,1,1,57061.5,54583.0,1709,0.32986587,-3.9124241,195.25879,325.86426,128.176,234.136,16.7625,20.1224,30.6923,30.0183
1981-06-08 01:13:11,1,-33.38,5.67,1.56,0.45618,1,1,71216.7,55060.6,1709,0.32986069,-3.9119663,195.25464,325.86792,141.876,233.242,17.3192,19.8549,34.2885,30.1494
1981-06-08 01:13:51,1,-33.3,6.18889,1.54444,0.465607,1,1,58786.9,54317.7,1709,0.32986069,-3.9119654,195.25073,325.86792,129.867,234.301,17.8577,19.6898,31.1529,29.9453
1981-06-08 01:14:32,1,-33.025,6.8625,0.95,0.434993,1,1,61136.2,54727.9,1709,0.3298555,-3.9115076,195.24658,325.87158,131.653,233.427,17.1156,19.4811,31.7693,30.0581
1981-06-08 01:15:12,1,-32.775,7.575,0.1875,0.427017,1,1,58109.5,55257.5,1709,0.32985032,-3.9110498,195.24243,325.87524,131.777,234.414,17.9457,18.7375,30.9729,30.2032
1981-06-08 01:15:53,1,-32.7444,7.84444,0.0888889,0.393465,1,1,71841.7,54570.2,1709,0.32985032,-3.9110498,195.23853,325.87524,144.759,232.825,20.0177,18.0463,34.4386,30.0148
1981-06-08 01:16:33,1,-32.5125,8.25,-0.7375,0.675231,1,1,54914.8,54260.9,1709,0.32984513,-3.9105921,195.23438,325.87891,131.457,234.293,18.5852,18.2894,30.1094,29.9296
1981-06-08 01:17:14,1,-32.925,7.45,-0.95,0.281736,1,1,56134.6,56268.7,1709,0.32983994,-3.9101343,195.23413,325.88257,133.318,234.454,18.266,17.2889,30.442,30.4784
1981-06-08 01:17:54,1,-32.95,7.3125,-1.45,0.30999,1,1,58985.5,55216.8,1709,0.32983994,-3.9101343,195.22632,325.88257,134.001,234.381,18.0234,16.0142,31.2054,30.1921
1981-06-08 01:18:35,1,-33.3667,6.32222,-2.27778,0.260579,1,1,74544.3,54918.2,1709,0.32983476,-3.9096766,195.22217,325.88623,147.474,231.955,17.8001,15.5483,35.0805,30.1104
1981-06-08 01:19:15,1,-33.325,5.975,-2.3,0.355317,1,1,56947.9,54193.7,1709,0.32982957,-3.9092188,195.22192,325.88989,133.485,233.841,16.5187,14.8287,30.6617,29.9111
1981-06-08 01:19:56,1,-33.575,5.375,-2.7875,0.239466,1,1,57352.5,55198.1,1709,0.32982957,-3.9092178,195.21411,325.88989,135.281,233.782,16.0978,14.6286,30.7705,30.187
1981-06-08 01:20:36,1,-33.6,5.3,-2.8,0.0,1,1,54518.5,55124.3,1709,0.32982439,-3.9087601,195.21387,325.89355,134.454,233.844,17.2165,14.1466,30.0006,30.1668
1981-06-08 01:21:17,1,-33.44,5.79,-3.02,0.221133,1,1,66020.0,56535.7,1709,0.3298192,-3.9083023,195.20972,325.89722,144.407,233.426,17.7035,13.1959,33.0138,30.5506
1981-06-08 01:21:57,1,-33.5556,5.81111,-3.12222,0.486103,1,1,56606.5,55873.8,1709,0.3298192,-3.9083023,195.20581,325.89722,137.703,234.418,18.5417,12.8241,30.5697,30.3712
1981-06-08 01:22:38,1,-33.2444,6.5,-3.65556,0.327354,1,1,73071.9,55632.0,1709,0.32981402,-3.9078445,195.20166,325.90088,149.468,233.287,17.8413,16.3397,34.7323,30.3054
1981-06-08 01:23:18,1,-33.2222,6.03333,-2.45556,1.06863,1,1,56656.8,54429.0,1709,0.32980883,-3.9073868,195.19751,325.90454,138.401,234.842,18.424,9.7293,30.5833,29.976
1981-06-08 01:23:59,1,-33.0667,6.37778,-5.28889,0.481254,1,1,59531.3,54713.4,1709,0.32980883,-3.9073868,195.1936,325.90454,137.944,235.94,18.9832,9.57883,31.3495,30.0542
1981-06-08 01:24:39,1,-33.2667,7.44444,-6.33333,0.275322,1,1,54491.2,54749.6,1709,0.32980365,-3.906929,195.18945,325.9082,134.279,236.463,19.5563,8.77763,29.9931,30.0641
1981-06-08 01:25:20,1,-33.1556,7.83333,-6.35556,0.353466,1,1,61183.2,54541.6,1709,0.32979846,-3.9064713,195.18921,325.91187,143.758,233.893,19.7875,9.8168,31.7815,30.0069
1981-06-08 01:26:00,1,-32.9375,6.9,-5.35,0.393502,1,1,56654.1,54462.4,1709,0.32979327,-3.9060135,195.18506,325.91553,134.218,236.263,18.4163,9.50253,30.5825,29.9852
1981-06-08 01:26:41,1,-33.6,6.32,-5.8,1.44693,1,1,68386.0,56800.2,1709,0.32979327,-3.9060125,195.17725,325.91553,148.19,234.154,21.6638,4.91694,33.6002,30.6219
1981-06-08 01:27:21,1,-32.6875,7.1625,-8.4125,0.479094,1,1,58415.3,55441.3,1709,0.32978809,-3.9055548,195.177,325.91919,137.774,234.279,18.8743,7.80884,31.0542,30.2534
1981-06-08 01:28:02,1,-33.24,6.25,-6.97,0.288097,1,1,63963.0,55660.2,1709,0.3297829,-3.905097,195.17285,325.92285,144.081,234.883,22.4415,4.92872,32.4954,30.3131
1981-06-08 01:28:42,1,-32.6,8.025,-8.6,0.821203,1,1,56239.7,55827.2,1709,0.3297829,-3.905097,195.16895,325.92285,134.296,234.882,19.4004,6.1767,30.4705,30.3585
1981-06-08 01:29:23,1,-33.02,6.32,-7.93,0.448665,1,1,57493.6,56698.6,1709,0.32977772,-3.9046392,195.16479,325.92651,141.024,235.446,19.0686,5.12525,30.8083,30.5946
1981-06-08 01:30:03,1,-33.0111,6.42222,-8.33333,1.00357,1,1,54259.1,54810.3,1709,0.32977253,-3.9041815,195.16455,325.93018,133.296,233.572,19.3257,10.6328,29.9291,30.0808
1981-06-08 01:30:44,1,-33.2,6.25,-4.7,0.206155,1,1,56538.4,54521.8,1709,0.32977253,-3.9041815,195.15674,325.93018,136.915,232.899,18.9799,10.1179,30.5513,30.0015
1981-06-08 01:31:24,1,-33.2444,6.28889,-5.12222,0.272166,1,1,56761.1,54557.5,1709,0.32976735,-3.9037237,195.15234,325.93359,135.111,232.996,18.9689,8.14142,30.6114,30.0113
1981-06-08 01:32:05,1,-33.1667,6.24444,-5.75556,0.356596,1,1,57727.9,55895.2,1709,0.32976216,-3.903266,195.1521,325.93726,134.741,235.254,19.2147,3.3809,30.871,30.377
1981-06-08 01:32:45,1,-32.6375,6.95,-9.15,0.526634,1,1,57068.6,54401.9,1709,0.32976216,-3.903265,195.14429,325.93726,132.219,234.524,19.1226,4.76091,30.6942,29.9685
1981-06-08 01:33:26,1,-32.8778,6.74444,-8.33333,0.361752,1,1,63735.9,56682.6,1709,0.32975698,-3.9028072,195.14404,325.94092,140.312,233.903,18.4876,5.85009,32.4377,30.5902
1981-06-08 01:34:06,1,-33.025,6.4375,-8.575,0.30999,1,1,56364.8,56828.8,1709,0.32975179,-3.9023495,195.13989,325.94458,135.602,233.876,18.1681,5.04925,30.5044,30.6297
1981-06-08 01:34:47,1,-33.1,5.7,-7.7,0.0,1,1,58113.4,57017.8,1709,0.32975179,-3.9023495,195.13208,325.94458,134.74,233.38,18.8358,8.40599,30.9739,30.6805
1981-06-08 01:35:27,1,-33.45,5.9625,-6.35,0.315981,1,1,53808.8,55817.2,1709,0.3297466,-3.9018917,195.13184,325.94824,132.563,233.31,19.7079,8.75142,29.8047,30.3558
1981-06-08 01:36:08,1,-33.2,6.8125,-5.8125,0.65741,1,1,56636.7,55654.5,1709,0.32974142,-3.9014339,195.12769,325.9519,133.742,233.675,18.8537,8.59294,30.5779,30.3115